User: anonymous   Login
Location: Podia
(1.5569°N, 32.3469°E)
Time: 11:56:57
(UTC+00:00)
Language:

SL-4 R/B - Orbit

View from above orbital plane
View from above orbital plane
View from above satellite
View from above satellite

Ground track
Ground track

The orbit data is extracted from the following two-line orbital elements,

1 39679U 14021B   21166.53308699  .00000251  00000-0  30222-4 0  9992
2 39679  51.6145 221.8167 0170475 124.3722 237.3505 15.06998812393762
Epoch (UTC): 15 June 2021 12:47:38
Eccentricity: 0.0170475
inclination: 51.6145°
perigee height: 427 km
apogee height: 663 km
right ascension of ascending node: 221.8167°
argument of perigee: 124.3722°
revolutions per day: 15.06998812
mean anomaly at epoch: 237.3505°
orbit number at epoch: 39376

The dashed part of the orbit path shows where the satellite is in the earth's shadow,  

DLR